Change the Weather History Date:

Saturday, March 8, 2014

  Actual Average Record
Temperature  
Mean Temperature 30 °F 36 °F  
Max Temperature 35 °F 45 °F 75 °F (1977)
Min Temperature 25 °F 26 °F -7 °F (1943)
Degree Days  
Heating Degree Days 35 30  
Month to date heating degree days 366 249  
Since 1 July heating degree days 5878 5134  
Cooling Degree Days 0 0  
Month to date cooling degree days 0 0  
Year to date cooling degree days 0 0  
Moisture  
Dew Point 26 °F    
Average Humidity 81    
Maximum Humidity 92    
Minimum Humidity 69    
Precipitation  
Precipitation T in 0.07 in 1.57 in (1998)
Month to date precipitation T 0.54  
Year to date precipitation 1.33 2.72  
Sea Level Pressure  
Sea Level Pressure 30.24 in    
Wind  
Wind Speed 11 mph (NNW)    
Max Wind Speed 22 mph    
Max Gust Speed 24 mph    
Visibility 8 miles    
Events Snow    
T = Trace of Precipitation, MM = Missing Value Source: NWS Daily Summary

Daily Weather History Graph

Daily Weather History Graph

Search for Another Location

Airport or City:

Trip Planner

Search our weather history database for the weather conditions in past years. The results will help you decide how hot, cold, wet, or windy it might be!

Date:

Astronomy

Mar. 08, 2014 Rise Set
Actual Time 6:32 AM CST 6:08 PM CST
Civil Twilight 6:05 AM CST 6:36 PM CST
Nautical Twilight 5:33 AM CST 7:08 PM CST
Astronomical Twilight 5:01 AM CST 7:40 PM CST
Moon 11:11 AM CST (3/8) 1:10 AM CST (3/8)
Length of Visible Light 12h 30m
Length of Day
11h 35m
First Quarter, 52% of the Moon is Illuminated
Mar 8
First Quarter
Mar 16
Full
Mar 23
Last Quarter
Mar 30
New
Apr 7
First Quarter

Hourly Weather History & Observations

Time (CST) Temp. Windchill Dew Point Humidity Pressure Visibility Wind Dir Wind Speed Gust Speed Precip Events Conditions
12:53 AM 30.0 °F 17.5 °F 25.0 °F 82% 30.09 in 6.0 mi NNW 19.6 mph - 0.00 in   Haze
1:53 AM 28.9 °F 17.3 °F 25.0 °F 85% 30.09 in 7.0 mi North 16.1 mph - N/A   Overcast
2:53 AM 28.9 °F 17.7 °F 25.0 °F 85% 30.10 in 7.0 mi NNW 15.0 mph - N/A   Overcast
3:53 AM 28.9 °F 18.2 °F 26.1 °F 89% 30.13 in 6.0 mi NNW 13.8 mph - N/A   Overcast
4:53 AM 28.9 °F 17.3 °F 26.1 °F 89% 30.15 in 5.0 mi NNW 16.1 mph - 0.00 in Snow Light Snow
5:53 AM 28.9 °F 18.2 °F 26.1 °F 89% 30.18 in 6.0 mi NNW 13.8 mph - 0.00 in   Overcast
6:05 AM 28.9 °F 17.7 °F 26.1 °F 89% 30.16 in 6.0 mi NNW 15.0 mph - N/A   Overcast
6:53 AM 30.0 °F 19.5 °F 27.0 °F 88% 30.20 in 5.0 mi NNW 13.8 mph - N/A   Overcast
7:53 AM 30.0 °F 19.5 °F 27.0 °F 88% 30.22 in 4.0 mi North 13.8 mph - N/A   Overcast
8:04 AM 30.0 °F 20.0 °F 27.0 °F 88% 30.19 in 5.0 mi North 12.7 mph - N/A   Overcast
8:53 AM 30.9 °F 20.2 °F 27.0 °F 85% 30.25 in 6.0 mi NNW 15.0 mph - N/A   Overcast
9:53 AM 30.9 °F 20.7 °F 27.0 °F 85% 30.26 in 8.0 mi NNW 13.8 mph - N/A   Overcast
10:02 AM 30.9 °F 21.7 °F 27.0 °F 85% 30.23 in 8.0 mi NNW 11.5 mph - N/A   Overcast
10:37 AM 32.0 °F 22.5 °F 27.0 °F 82% 30.24 in 9.0 mi NNW 12.7 mph - N/A   Overcast
10:44 AM 32.0 °F 23.0 °F 27.0 °F 82% 30.24 in 9.0 mi NNW 11.5 mph - N/A   Overcast
10:53 AM 32.0 °F 23.0 °F 27.0 °F 82% 30.28 in 9.0 mi NNW 11.5 mph - N/A   Overcast
11:34 AM 33.1 °F 23.0 °F 27.0 °F 78% 30.26 in 10.0 mi NNW 15.0 mph - N/A   Overcast
11:53 AM 33.1 °F 23.9 °F 27.0 °F 78% 30.29 in 10.0 mi NNW 12.7 mph - N/A   Overcast
12:26 PM 33.1 °F 23.4 °F 27.0 °F 78% 30.26 in 10.0 mi NW 13.8 mph - N/A   Overcast
12:35 PM 33.1 °F 23.9 °F 27.0 °F 78% 30.26 in 10.0 mi NNW 12.7 mph - N/A   Overcast
12:45 PM 34.0 °F 25.5 °F 27.0 °F 75% 30.26 in 10.0 mi NNW 11.5 mph - N/A   Overcast
12:53 PM 34.0 °F 26.0 °F 27.0 °F 75% 30.29 in 10.0 mi NNW 10.4 mph - N/A   Overcast
1:53 PM 35.1 °F 26.4 °F 27.0 °F 72% 30.27 in 10.0 mi NNW 12.7 mph - N/A   Overcast
2:19 PM 34.0 °F 25.0 °F 27.0 °F 75% 30.24 in 10.0 mi NNW 12.7 mph - N/A   Overcast
2:30 PM 35.1 °F 26.9 °F 27.0 °F 72% 30.24 in 10.0 mi NNW 11.5 mph - N/A   Overcast
2:53 PM 35.1 °F 26.4 °F 27.0 °F 72% 30.27 in 10.0 mi North 12.7 mph - N/A   Overcast
3:20 PM 35.1 °F 27.4 °F 27.0 °F 72% 30.24 in 10.0 mi NNW 10.4 mph - N/A   Overcast
3:53 PM 34.0 °F 26.0 °F 26.1 °F 73% 30.28 in 10.0 mi NNW 10.4 mph - N/A   Overcast
4:32 PM 34.0 °F 26.6 °F 25.0 °F 70% 30.26 in 10.0 mi NNW 9.2 mph - N/A   Overcast
4:53 PM 34.0 °F 26.0 °F 25.0 °F 70% 30.30 in 10.0 mi North 10.4 mph - N/A   Overcast
5:53 PM 32.0 °F 24.8 °F 25.0 °F 75% 30.31 in 10.0 mi NNW 8.1 mph - N/A   Overcast
6:53 PM 30.0 °F 24.1 °F 25.0 °F 82% 30.33 in 10.0 mi NNW 5.8 mph - N/A   Overcast
7:53 PM 28.0 °F 24.2 °F 23.0 °F 81% 30.33 in 10.0 mi NNW 3.5 mph - N/A   Clear
8:53 PM 27.0 °F 21.6 °F 23.0 °F 85% 30.33 in 10.0 mi NW 4.6 mph - N/A   Clear
9:53 PM 26.1 °F 18.4 °F 23.0 °F 88% 30.32 in 9.0 mi North 6.9 mph - N/A   Clear
10:53 PM 26.1 °F 20.5 °F 23.0 °F 88% 30.33 in 9.0 mi NW 4.6 mph - N/A   Clear
11:53 PM 25.0 °F 20.7 °F 21.9 °F 88% 30.32 in 8.0 mi NW 3.5 mph - N/A   Clear